Simultaneous Nadir Overpasses (SNOs) Predictions

Prediction of SNOs between NOAA-19 and NPP Satellite Orbit:

Table of predicted SNOs for the next 14.0 days since TLE Epoch: 4/18/2015
Index Date (NOAA-19) Time (NOAA-19) Lat,Lon (NOAA-19) SZA (NOAA-19 ) Date (NPP) Time (NPP) Lat,Lon (NPP) SZA (NPP ) Distance(km) Time Diff (sec)
1 04/22/2015 15:01:48 81.01, -97.08 72.23 04/22/2015 15:02:57 81.01, -97.23 72.21 2.66 69
2 04/22/2015 15:52:54 -81.01, 70.18 107.79 04/22/2015 15:53:41 -81.00, 70.36 107.84 3.17 47
3 04/22/2015 16:43:50 81.00,-122.30 72.17 04/22/2015 16:44:26 81.00,-122.32 72.15 0.57 36
4 04/22/2015 17:34:56 -81.00, 44.96 107.86 04/22/2015 17:35:11 -81.00, 44.90 107.86 1.03 15
5 04/22/2015 18:25:53 81.00,-147.90 72.15 04/22/2015 18:25:56 81.00,-147.78 72.14 1.99 3
6 04/22/2015 19:16:58 -81.00, 19.74 107.92 04/22/2015 19:16:40 -80.99, 19.81 107.92 1.43 18
7 04/22/2015 20:07:55 81.00,-173.12 72.09 04/22/2015 20:07:26 81.01,-173.24 72.13 2.32 29
8 04/22/2015 20:59:00 -80.99, -5.49 107.98 04/22/2015 20:58:10 -80.99, -5.65 107.93 2.84 50




NCC Satellite Simultaneous Nadir Overpasses (SNOs) Prediction Service
